Location: Unspecified
(0.0000°N, 0.0000°E)
Time: 16:08:50
(UTC+00:00)

Oscar 16 - Visible Passes

Search period start: 31 May 2023 00:00
Search period end: 10 June 2023 00:00
Orbit: 774 x 788 km, 98.9° (Epoch: 31 May)

Date Brightness Start Highest point End Pass type
(mag) Time Alt. Az. Time Alt. Az. Time Alt. Az.
31 May 13.2 03:46:30 10° ENE 03:49:36 16° ESE 03:52:42 10° SE visible
31 May 11.5 05:24:08 10° NNW 05:28:35 30° WNW 05:33:03 10° SW visible
01 Jun 10.6 04:51:30 10° N 04:56:38 76° WNW 05:01:45 10° SSW visible
02 Jun 11.7 04:19:49 10° NNE 04:24:40 43° ESE 04:29:30 10° S visible
03 Jun 13.1 03:49:23 10° ENE 03:52:43 17° ESE 03:56:02 10° SE visible
03 Jun 11.6 05:27:22 10° NNW 05:31:42 28° WNW 05:36:02 10° SW visible
04 Jun 10.6 04:54:38 10° N 04:59:44 71° WNW 05:04:51 10° SSW visible
05 Jun 11.6 04:22:52 10° NNE 04:27:46 46° ESE 04:32:40 10° S visible
06 Jun 13.0 03:52:17 10° ENE 03:55:48 19° ESE 03:59:20 10° SSE visible
06 Jun 11.7 05:30:35 10° NNW 05:34:48 26° WNW 05:39:01 10° SW visible
07 Jun 10.6 04:57:45 10° N 05:02:50 65° WNW 05:07:55 10° SSW visible
08 Jun 11.4 04:25:55 10° NNE 04:30:51 50° ESE 04:35:49 10° S visible
09 Jun 12.9 03:55:12 10° ENE 03:58:54 20° ESE 04:02:36 10° SSE visible
